Location: Flensburg
(54.6357°N, 9.5142°E)
Time: 22:55:54
(UTC+01:00)

ISS - Pass Details

Date: 09 January 2018
Orbit: 402 x 407 km, 51.6° (Epoch: 18 January)

Event Time Altitude Azimuth Distance (km) Brightness Sun altitude
Exits shadow 05:48:47 33° 136° (SE) 707 -2.3 -23.6°
Drops below altitude 10° 05:50:56 10° 112° (ESE) 1,468 0.0 -23.3°
Sets 05:53:03 0° 107° (ESE) 2,329 1.4 -23.0°
